Regional Weather Roundup
Issued by NWS

Home | Current Version | Previous Version | Text Only | Print | Product List | Glossary On
Versions: 1 2 3 4 5 6 7 8 9 10 11 12 13 14 15 16 17 18 19 20 21 22 23 24 25 26 27
000
ASUS45 KSLC 030310
RWRUT

UTAH REGIONAL WEATHER ROUNDUP
NATIONAL WEATHER SERVICE SALT LAKE CITY UT
800 PM MST FRI DEC 02 2016

UTZ001>011-023>025-030400-

NORTHERN UTAH

CITY           SKY/WX    TMP DP  RH WIND       PRES   REMARKS
BRIGHAM CITY     N/A     28  21  74 W6        30.29S WCI  22
HILL AFB       CLEAR     25  16  68 SE8       30.26R WCI  16
LOGAN          CLEAR    N/A N/A N/A CALM      30.28S
OGDEN          CLEAR     25  18  74 SE6       30.26S WCI  18
SALT LAKE CITY CLEAR     30  22  72 N6        30.29R WCI  24
TOOELE VALLEY  MOCLDY    21  18  86 SE8       30.31R WCI  12
WENDOVER       CLEAR     30  18  59 CALM      30.31S
HEBER CITY     CLEAR     14  10  85 CALM      30.23R
WEST JORDAN    CLEAR     27  22  82 W8        30.28R WCI  19

$$

UTZ011>015-024>027-030400-

CENTRAL/NORTHEAST UTAH

CITY           SKY/WX    TMP DP  RH WIND       PRES   REMARKS
PROVO AIRPORT  CLEAR     27  21  78 CALM      30.27R
MOAB/CANYONLAN CLEAR     29  14  53 CALM      30.15R
DELTA          CLEAR     27  19  74 N9        30.27R WCI  17
PRICE          CLEAR     22  12  65 N7        30.17R WCI  13
RICHFIELD      CLOUDY    28  23  80 N1        30.23
ROOSEVELT      MOCLDY    27  18  69 CALM      30.24R
VERNAL         MOCLDY    24  13  62 NW3       30.22R

$$

UTZ013>016-019>022-027-030400-

SOUTHERN UTAH

CITY           SKY/WX    TMP DP  RH WIND       PRES   REMARKS
BRYCE CANYON   NOT AVBL
CEDAR CITY     CLEAR     22  15  75 N8        30.17R WCI  12
MILFORD        CLOUDY    28  21  75 N10       30.22S WCI  19
ST GEORGE      CLEAR     43  14  31 NE21G26   30.17R
HANKSVILLE     CLEAR     34  14  44 NW5       30.19R WCI  30
KANAB          CLEAR     34  14  44 N16       30.15R WCI  23
BLANDING       CLEAR     29  19  65 NW6       30.16R WCI  23

$$

REGIONAL REPORTS     COLORADO/ARIZONA

CITY           SKY/WX    TMP DP  RH WIND       PRES   REMARKS
CRAIG, CO      CLOUDY    23  16  74 SW5       30.18S WCI  17
GRAND JUNCTION CLOUDY    32  19  58 W5        30.16R WCI  27
RIFLE, CO      CLOUDY    27  24  89 S5        30.17S WCI  22
MONTROSE, CO   LGT SNOW  28  25  88 S3        30.18R FOG
CORTEZ, CO     LGT SNOW  31  29  92 E7        30.09R FOG     WCI  24
COLORADO CITY    N/A     32  19  59 W3        30.14R
PAGE, AZ       CLEAR     40  12  32 NE8       30.11R WCI  34
GRAND CANYON   MOCLDY   N/A N/A N/A NE6       30.06S
KINGMAN, AZ    CLEAR     41  13  31 N15       30.06R
FLAGSTAFF, AZ  CLOUDY    28  18  66 NE7       30.01R WCI  21

$$

REGIONAL REPORTS    NEVADA/IDAHO/WYOMING

CITY           SKY/WX    TMP DP  RH WIND       PRES   REMARKS
LAS VEGAS, NV  CLEAR     49  10  20 N14       30.16R
ELY, NY        CLEAR     16   9  74 E3        30.25R
ELKO, NV       PTCLDY    22  15  75 W3        30.31R
POCATELLO, ID  CLOUDY    27  20  75 S9        30.27F WCI  18
BURLEY, ID     CLOUDY    27  22  81 SW6       30.28F WCI  20
FORT BRIDGER,  CLEAR     14   9  79 SW9       30.20S WCI   2
EVANSTON, WY   CLOUDY    18   9  68 S3        30.17F
ROCK SPRINGS,  CLOUDY    12   9  87 SW9       30.16S WCI   0

$$




USA.gov is the U.S. government's official web portal to all federal, state and local government web resources and services.